Lid_Strength_Index
-1 0 -0 1 7 6 9 8 6 7 6 5 4 5 5 5 6 8 1 -0 -0 -0 -1 -1 -1 -1 -1 -2 -1 -1 -1 -1 -1 -1 -1 -1 -2 -2 -2 -2 -2 -2 -1 -0 0 1 0 -1 -1
0 1 1 3 8 10 9 7 7 6 5 4 4 5 5 6 3 3 2 -0 -0 -1 -1 -1 -0 -1 -1 -2 -1 -1 -1 -1 -1 -1 -1 -1 -2 -2 -2 -2 -2 -2 -2 -1 -0 0 -0 -1 -1
1 2 4 5 7 9 9 7 6 6 5 5 5 4 5 5 3 2 0 -0 -1 -1 -1 -1 -0 -1 -2 -2 -1 -1 -1 -1 -1 -1 -1 -1 -2 -2 -2 -2 -2 -2 -2 -1 -0 -0 -1 -1 -2
1 2 3 7 9 8 8 7 6 6 5 5 5 6 4 2 2 1 -0 -0 -0 -1 -1 -0 -1 -1 -2 -1 -1 -2 -1 -1 -1 -1 -1 -1 -2 -2 -2 -2 -2 -1 -2 -1 -0 0 -0 -1 -2
2 3 7 8 8 7 7 6 6 6 6 6 5 6 5 3 0 0 0 -0 0 -0 -1 -1 -1 -1 -1 -1 -1 -1 -2 -2 -1 -1 -1 -1 -2 -2 -2 -2 -2 -2 -2 -1 -0 1 1 0 -0
4 4 8 9 8 7 6 6 6 6 6 6 6 6 5 2 1 1 -0 -0 -0 -0 -1 -1 0 -0 -1 -1 -1 -1 -2 -2 -2 -1 -2 -2 -2 -1 -2 -2 -2 -2 -2 -1 -1 0 1 1 1
5 7 8 8 8 8 7 5 6 6 6 6 5 6 4 3 2 0 0 -0 -0 -1 -1 -1 -1 -0 1 0 0 -1 -1 -1 -1 -1 -2 -1 -2 -1 -2 -2 -1 -2 -2 -2 -1 -1 1 2 2
4 6 9 8 9 8 6 6 5 6 6 5 4 7 6 4 3 0 0 0 -0 -0 -0 -1 -1 -1 -1 -1 2 1 -0 -1 -1 -1 -0 0 -0 -0 -1 -1 -2 -2 -2 -2 -1 -1 1 3 3
4 8 9 9 9 8 6 7 6 5 6 6 5 5 5 4 3 2 1 1 1 0 -0 -1 -1 -1 -1 -1 -0 1 1 1 1 0 2 2 -0 -1 -0 -0 -1 -1 -2 -2 -1 -0 1 4 4
6 8 9 7 7 7 6 6 6 6 6 6 6 5 5 4 4 4 4 3 3 3 3 1 -0 -0 -0 -0 -1 -1 -1 -1 -1 -1 -1 -1 -1 -1 -1 1 1 0 -1 -1 -1 0 1 -0 1
6 8 8 8 7 6 6 7 6 7 7 6 7 6 6 5 5 5 5 5 5 4 3 3 2 -0 0 -1 -1 -1 -1 -1 -2 -1 -1 -1 -1 -1 -0 0 0 0 2 0 -0 -1 -1 -0 1
8 7 7 7 7 7 7 6 7 7 7 7 7 7 7 6 6 6 6 5 5 4 4 3 3 1 -0 -1 -1 -1 -1 -0 0 -1 -1 -1 -1 -1 -0 -0 1 1 1 1 0 0 -1 -0 0
8 7 7 6 6 6 6 7 7 7 7 7 7 7 7 7 7 6 6 5 5 5 4 3 1 2 -0 -0 1 2 3 4 4 3 1 -1 -0 0 0 1 2 2 1 1 1 0 0 0 0
7 7 7 7 7 7 8 7 8 7 7 8 8 8 8 8 8 7 7 6 5 6 5 3 3 -0 2 4 5 5 6 6 6 6 4 2 1 2 2 3 3 3 2 3 2 2 1 1 1
7 8 7 7 7 8 7 9 9 8 8 8 9 9 9 9 8 8 7 7 7 7 6 5 4 4 6 6 7 7 7 7 8 8 6 5 3 3 4 4 4 3 3 3 2 2 1 2 2
8 8 9 7 8 8 8 10 8 8 8 8 8 8 9 10 9 8 7 7 8 7 7 7 7 8 7 8 7 7 9 8 9 9 8 7 7 6 5 5 6 5 5 5 4 4 3 3 3
9 11 10 9 8 9 9 9 9 8 8 8 8 9 9 9 9 9 8 9 9 8 7 8 9 9 10 11 10 10 9 8 8 9 9 8 7 7 7 7 6 5 6 6 5 4 4 5 5
10 10 10 10 9 9 9 9 9 9 9 9 8 9 9 10 10 10 9 10 10 9 9 10 10 11 11 11 11 11 11 11 11 10 10 10 9 8 8 9 8 8 9 9 8 7 7 7 8
10 10 10 9 8 10 9 9 8 9 9 9 9 9 9 10 10 10 9 10 11 10 10 10 10 10 11 11 12 12 12 12 11 11 11 11 11 10 10 10 10 10 11 11 11 10 10 10 9
10 12 11 9 9 11 10 10 8 8 9 9 10 10 11 11 12 11 10 11 11 11 11 11 10 10 11 10 11 11 11 11 12 11 12 12 12 12 12 11 12 11 12 12 12 12 12 11 11
11 12 12 11 10 10 11 12 10 8 9 10 11 11 12 12 12 12 11 11 11 11 11 11 11 11 11 10 11 11 11 11 12 12 12 12 12 12 12 12 12 12 12 13 13 12 13 13 12
13 10 11 12 12 14 11 16 11 10 12 13 13 13 12 13 12 12 12 11 11 11 10 11 10 11 10 9 10 11 12 13 13 12 12 12 12 12 12 12 13 12 12 13 13 13 12 13 13
12 11 12 12 13 12 12 15 12 11 13 13 13 13 13 13 13 13 13 13 12 11 11 12 12 11 11 11 11 12 12 12 12 12 12 12 12 12 13 12 13 13 13 13 13 13 13 13 13
11 12 13 13 13 17 13 14 13 13 13 12 13 13 13 13 14 14 14 14 13 12 12 12 12 12 11 11 11 12 12 12 12 12 12 12 13 13 13 13 13 13 13 14 13 13 13 13 13
11 13 16 18 18 18 14 14 12 11 12 11 13 13 13 13 14 15 15 15 14 13 13 13 13 13 12 12 12 12 12 12 12 13 13 13 13 14 14 13 13 13 13 13 13 13 13 13 14
13 13 16 22 20 17 16 17 13 13 12 11 12 12 13 14 14 15 15 15 14 13 13 13 13 13 13 12 12 12 12 12 12 12 13 14 14 14 13 14 14 14 14 13 13 13 13 13 13
13 14 11 16 18 18 15 14 14 14 14 12 13 13 13 14 14 14 14 14 14 13 13 13 13 13 13 12 12 12 12 12 13 13 13 14 14 14 14 14 14 14 14 14 14 13 14 14 14
11 11 16 16 21 21 15 14 14 15 15 14 14 13 13 13 14 14 14 14 13 13 13 13 13 13 13 13 12 13 12 12 13 13 14 13 13 14 14 14 15 15 14 14 14 14 14 15 14
14 14 13 13 14 18 18 15 10 11 12 13 13 13 13 14 14 14 14 14 13 13 13 13 13 13 13 13 13 13 13 13 13 14 14 14 14 15 15 15 15 15 15 15 15 15 15 16 15
11 12 12 15 17 15 15 14 12 11 10 11 12 12 12 13 13 13 14 13 13 13 13 13 13 13 12 12 12 13 13 13 14 15 15 15 15 15 16 16 15 16 16 16 16 17 16 17 16